Dublin, Ireland

9:49 PM GMT on November 17, 2017 (GMT +0000)
Dublin International

Weather History for EIDW - October, 2013

Change the Weather History Date:

Wednesday, October 9, 2013

  Actual Average Record
Temperature  
Mean Temperature 48 °F -  
Max Temperature 55 °F 55 °F 64 °F (2003)
Min Temperature 41 °F 44 °F 36 °F (2012)
Degree Days  
Heating Degree Days 17    
Moisture  
Dew Point 43 °F    
Average Humidity 78    
Maximum Humidity 93    
Minimum Humidity 54    
Precipitation  
Precipitation 0.00 in 0.09 in - ()
Sea Level Pressure  
Sea Level Pressure 30.22 in    
Wind  
Wind Speed 13 mph ()    
Max Wind Speed 23 mph    
Max Gust Speed 32 mph    
Visibility 6.7 miles    
Events Rain    
Averages and records for this station are not official NWS values.
T = Trace of Precipitation, MM = Missing Value Source: Averaged Metar Reports

Daily Weather History Graph

Daily Weather History Graph

Search for Another Location

Airport or City:

Trip Planner

Search our weather history database for the weather conditions in past years. The results will help you decide how hot, cold, wet, or windy it might be!

Date:

Astronomy

Oct. 09, 2013 Rise Set
Actual Time 7:41 AM IST 6:42 PM IST
Civil Twilight 7:06 AM IST 7:17 PM IST
Nautical Twilight 6:25 AM IST 7:57 PM IST
Astronomical Twilight 5:44 AM IST 8:38 PM IST
Moon 12:57 PM IST (10/9) 9:28 PM IST (10/9)
Length of Visible Light 12h 11m
Length of Day
11h 01m
Waxing Crescent, 23% of the Moon is Illuminated
Oct 9
Waxing Crescent
Oct 12
First Quarter
Oct 19
Full
Oct 27
Last Quarter
Nov 3
New

Hourly Weather History & Observations

Time (IST) Temp. Windchill Dew Point Humidity Pressure Visibility Wind Dir Wind Speed Gust Speed Precip Events Conditions
12:00 AM 53.6 °F - 50.0 °F 88% 30.30 in 6.2 mi WNW 10.4 mph - N/A   Mostly Cloudy
12:30 AM 53.6 °F - 48.2 °F 82% 30.30 in 6.2 mi WNW 11.5 mph - N/A   Mostly Cloudy
1:00 AM 53 °F - 47 °F 73% 30.31 in 19 mi West 13.4 mph - -   Partly Cloudy
1:00 AM 51.8 °F - 46.4 °F 82% 30.30 in 6.2 mi West 12.7 mph - N/A   Mostly Cloudy
1:30 AM 51.8 °F - 46.4 °F 82% 30.27 in 6.2 mi West 12.7 mph - N/A   Mostly Cloudy
2:00 AM 50.0 °F - 46.4 °F 87% 30.27 in 6.2 mi West 10.4 mph - N/A   Mostly Cloudy
2:30 AM 50.0 °F - 46.4 °F 87% 30.27 in 6.2 mi West 13.8 mph - N/A   Mostly Cloudy
3:00 AM 51.8 °F - 46.4 °F 82% 30.27 in 6.2 mi West 10.4 mph - N/A   Mostly Cloudy
3:30 AM 51.8 °F - 46.4 °F 82% 30.27 in 6.2 mi West 13.8 mph - N/A   Mostly Cloudy
4:00 AM 50.0 °F - 46.4 °F 87% 30.24 in 6.2 mi West 13.8 mph - N/A   Mostly Cloudy
4:30 AM 50.0 °F - 46.4 °F 87% 30.24 in 6.2 mi West 13.8 mph - N/A   Mostly Cloudy
5:00 AM 50.0 °F - 46.4 °F 87% 30.24 in 6.2 mi West 12.7 mph - N/A   Mostly Cloudy
5:30 AM 50.0 °F - 46.4 °F 87% 30.24 in 6.2 mi West 12.7 mph - N/A   Scattered Clouds
6:00 AM 48.2 °F - 46.4 °F 93% 30.24 in 6.2 mi West 12.7 mph - N/A   Partly Cloudy
6:30 AM 48.2 °F - 46.4 °F 93% 30.24 in 6.2 mi West 13.8 mph - N/A   Partly Cloudy
7:00 AM 49 °F - 46 °F 84% 30.24 in 19 mi West 15.7 mph - -   Partly Cloudy
7:00 AM 48.2 °F - 46.4 °F 93% 30.21 in 6.2 mi West 15.0 mph - N/A   Partly Cloudy
7:30 AM 50.0 °F - 46.4 °F 87% 30.21 in 6.2 mi West 15.0 mph - N/A   Mostly Cloudy
8:00 AM 50.0 °F - 46.4 °F 87% 30.21 in 6.2 mi West 15.0 mph - N/A   Mostly Cloudy
8:30 AM 48.2 °F - 46.4 °F 93% 30.21 in 6.2 mi WSW 13.8 mph - N/A   Mostly Cloudy
9:00 AM 50.0 °F - 46.4 °F 87% 30.21 in 6.2 mi West 15.0 mph - N/A   Mostly Cloudy
9:30 AM 50.0 °F - 46.4 °F 87% 30.18 in 6.2 mi West 17.3 mph - N/A   Mostly Cloudy
10:00 AM 51.8 °F - 46.4 °F 82% 30.18 in 6.2 mi West 18.4 mph - N/A   Mostly Cloudy
10:30 AM 51.8 °F - 46.4 °F 82% 30.18 in 6.2 mi West 19.6 mph - N/A   Mostly Cloudy
11:00 AM 53.6 °F - 48.2 °F 82% 30.18 in 6.2 mi West 19.6 mph - N/A   Mostly Cloudy
11:30 AM 53.6 °F - 48.2 °F 82% 30.18 in 6.2 mi WNW 23.0 mph - N/A   Light Drizzle
12:00 PM 51.8 °F - 48.2 °F 88% 30.18 in 6.2 mi WNW 18.4 mph - N/A   Mostly Cloudy
12:30 PM 53.6 °F - 46.4 °F 77% 30.18 in 6.2 mi WNW 18.4 mph - N/A   Mostly Cloudy
1:00 PM 55 °F - 45 °F 60% 30.19 in 22 mi NW 15.7 mph - - Rain Light Rain Showers
1:00 PM 55.4 °F - 46.4 °F 72% 30.18 in 6.2 mi WNW 16.1 mph - N/A   Scattered Clouds
1:30 PM 55.4 °F - 42.8 °F 63% 30.18 in 6.2 mi WNW 21.9 mph - N/A   Scattered Clouds
2:00 PM 53.6 °F - 42.8 °F 67% 30.18 in 6.2 mi NW 21.9 mph - N/A   Mostly Cloudy
2:30 PM 51.8 °F - 44.6 °F 76% 30.18 in 6.2 mi NW 19.6 mph - N/A Rain Light Rain Showers
3:00 PM 53.6 °F - 41.0 °F 62% 30.18 in 6.2 mi NW 18.4 mph - N/A   Scattered Clouds
3:30 PM 53.6 °F - 39.2 °F 58% 30.18 in 6.2 mi NNW 23.0 mph - N/A   Scattered Clouds
4:00 PM 51.8 °F - 37.4 °F 58% 30.18 in 6.2 mi NNW 20.7 mph 32.2 mph N/A   Mostly Cloudy
4:30 PM 51.8 °F - 37.4 °F 58% 30.18 in 6.2 mi NNW 21.9 mph - N/A   Mostly Cloudy
5:00 PM 50.0 °F - 33.8 °F 54% 30.18 in 6.2 mi NW 15.0 mph - N/A   Scattered Clouds
5:30 PM 50.0 °F - 35.6 °F 58% 30.18 in 6.2 mi NW 16.1 mph - N/A   Partly Cloudy
6:00 PM 48.2 °F - 33.8 °F 58% 30.18 in 6.2 mi NNW 17.3 mph - N/A   Partly Cloudy
6:30 PM 46.4 °F 40.7 °F 35.6 °F 66% 30.21 in 6.2 mi NW 12.7 mph - N/A   Partly Cloudy
7:00 PM 46 °F - 35 °F 55% 30.23 in 28 mi NW 13.4 mph - -   Partly Cloudy
7:00 PM 46.4 °F 40.7 °F 35.6 °F 66% 30.21 in 6.2 mi WNW 12.7 mph - N/A   Partly Cloudy
7:30 PM 44.6 °F 37.8 °F 35.6 °F 71% 30.21 in 6.2 mi NW 15.0 mph - N/A   Partly Cloudy
8:00 PM 44.6 °F 38.8 °F 37.4 °F 76% 30.21 in 6.2 mi NW 11.5 mph - N/A   Partly Cloudy
8:30 PM 44.6 °F 38.4 °F 37.4 °F 76% 30.21 in 6.2 mi WNW 12.7 mph - N/A   Partly Cloudy
9:00 PM 42.8 °F 36.2 °F 37.4 °F 81% 30.24 in 6.2 mi NW 12.7 mph - N/A   Partly Cloudy
9:24 PM 42.8 °F 36.2 °F 37.4 °F 81% 30.24 in 6.2 mi NW 12.7 mph - N/A   Partly Cloudy
9:30 PM 42.8 °F 36.2 °F 37.4 °F 81% 30.24 in 6.2 mi NW 12.7 mph - N/A   Partly Cloudy
10:00 PM 42.8 °F 35.8 °F 37.4 °F 81% 30.24 in 6.2 mi WNW 13.8 mph - N/A   Partly Cloudy
10:30 PM 42.8 °F 36.2 °F 37.4 °F 81% 30.24 in 6.2 mi WNW 12.7 mph - N/A   Partly Cloudy
11:00 PM 41.0 °F 34.7 °F 37.4 °F 87% 30.27 in 6.2 mi NW 10.4 mph - N/A   Partly Cloudy
11:30 PM 41.0 °F 33.1 °F 37.4 °F 87% 30.24 in 6.2 mi NW 15.0 mph - N/A   Partly Cloudy